Location: La Planche
(48.4861°N, 2.5355°E)
Time: 03:33:35
(UTC+00:00)

Daily predictions for brighter satellites

Satellite Brightness Start Highest point End
(mag) Time Altitude Azimuth Time Altitude Azimuth Time Altitude Azimuth
Cosmos 468 4.5 00:03:47 32° SSW 00:06:19 89° WNW 00:11:40 10° NNE
Cosmos 2082 Rocket 3.0 00:01:54 10° NW 00:07:01 36° WSW 00:09:02 27° SSW
COSMOS 2455 4.3 00:04:46 19° SE 00:07:09 24° ESE 00:11:47 10° NE
MetOp-A 3.5 00:06:33 42° SSW 00:07:30 56° WSW 00:11:16 10° NNW
Nadezhda 1 Rocket 4.1 00:04:29 27° SSW 00:07:54 67° WNW 00:14:07 10° N
Cosmos 2278 Rocket 3.6 00:06:48 10° WSW 00:11:56 34° NW 00:17:07 10° NNE
Cosmos 1869 4.0 00:09:14 10° N 00:12:29 37° ENE 00:13:40 28° ESE
NOSS 3-1 (A) 4.5 00:14:35 17° SE 00:15:53 19° ESE 00:19:30 10° ENE
CZ-4C R/B 4.1 00:12:36 10° NNE 00:16:00 35° E 00:16:54 30° SE
Cosmos 1356 Rocket 3.9 00:12:42 10° N 00:16:38 51° ENE 00:18:25 28° SE
SL-8 R/B 3.7 00:15:45 29° SW 00:18:01 58° SSE 00:22:42 10° E
Cosmos 1452 Rocket 3.9 00:13:47 10° NNW 00:18:51 49° WSW 00:20:55 32° SSW
Cosmos 1992 Rocket 4.3 00:13:47 10° NNW 00:18:57 65° ENE 00:22:25 21° SE
USA 308 3.8 00:23:07 26° ESE 00:23:07 26° ESE 00:26:11 10° ENE
Cosmos 1908 Rocket 4.0 00:19:26 10° N 00:23:49 55° ENE 00:26:03 26° SE
NOSS 3-1 (C) 3.0 00:22:32 35° S 00:24:19 57° ESE 00:29:42 10° NE
Cosmos 972 Rocket 4.4 00:27:07 10° NNW 00:32:39 52° WSW 00:34:55 31° SSW
Cosmos 967 Rocket 4.5 00:29:04 25° SSW 00:33:02 86° SE 00:39:33 10° NE
CZ-3B R/B 4.3 00:28:33 24° SSW 00:33:03 67° SE 01:02:53 10° ENE
COSMOS 2406 3.6 00:29:12 10° NW 00:34:37 46° WSW 00:37:01 29° SSW
Cosmos 2341 Rocket 4.0 00:28:34 10° NNW 00:34:49 77° W 00:38:22 27° S
SL-8 Rocket 4.0 00:32:24 10° NNW 00:38:32 70° W 00:41:58 27° S
SL-4 R/B 2.1 00:42:23 37° SE 00:42:23 37° SE 00:44:58 10° ENE
Cosmos 1782 Rocket 4.5 00:37:57 10° N 00:42:11 44° ENE 00:45:03 18° SE
NOSS 7 (E) 4.4 00:41:40 10° NW 00:44:45 50° SW 00:44:54 49° SW
Cosmos 2297 3.7 00:45:21 29° SSW 00:48:25 75° ESE 00:54:10 10° NNE
DELTA 2 DEB (DPAF) 3.6 00:49:06 10° NNE 00:52:38 68° ESE 00:53:47 39° S
Lacrosse 4 Rocket 1.8 00:48:38 10° NNW 00:52:49 64° NE 00:56:30 13° SE
USA 59 Rocket 2.2 00:52:06 10° NW 00:53:19 12° NNW 00:54:29 10° N
Cosmos 2369 Rocket 2.1 00:50:46 27° SSW 00:53:54 88° NW 00:59:31 10° NNE
BREEZE-M DEB (TANK) 4.3 00:29:47 10° W 00:54:52 89° SSW 00:59:37 10° ESE
USA 290 2.1 00:53:39 10° NNW 00:56:46 62° WSW 00:57:15 52° SSW
CZ-2C R/B 3.7 00:55:17 22° SW 00:57:18 29° W 01:01:50 10° NW
Cosmos 2228 Rocket 3.8 00:59:27 26° SW 01:01:26 41° WNW 01:05:37 10° N
ADEOS Rocket 3.9 00:55:37 10° NNE 01:01:31 39° E 01:05:49 15° SSE
Lacrosse 5 rocket 3.8 01:05:04 10° NW 01:07:43 20° N 01:10:19 10° NE
Geosat 4.3 01:03:16 10° NNE 01:08:14 62° NW 01:11:26 22° SW
USA 276 1.9 01:09:04 29° W 01:10:21 75° N 01:13:21 10° ENE
Cosmos 1818 3.6 01:09:43 26° SSW 01:12:46 69° ESE 01:18:12 10° NE
In-Cosmos 22 Rocket 4.3 01:09:23 23° S 01:12:49 69° E 01:18:24 10° NNE
Cosmos 2239 Rocket 4.5 01:10:32 10° N 01:16:46 89° E 01:21:32 18° S
Cosmos 1300 Rocket 3.5 01:12:36 10° NNW 01:16:55 67° W 01:19:07 28° S
Cosmos 1315 Rocket 4.3 01:15:24 10° NW 01:18:17 21° W 01:19:10 19° WSW
ARIANE 6 FM1 Upper Stage 3.0 01:16:12 21° WSW 01:18:49 60° NW 01:22:53 10° NE
CENTAUR R/B 4.5 01:19:55 10° NW 01:27:16 43° NNE 01:35:55 10° ESE
Cosmos 1703 Rocket 4.2 01:25:41 24° SW 01:27:54 43° WNW 01:32:06 10° N
Cosmos 2181 Rocket 4.4 01:25:44 21° SW 01:29:52 54° WNW 01:36:09 10° N
Cosmos 1934 Rocket 4.3 01:25:29 10° N 01:31:47 71° E 01:38:07 10° SSE
ATLAS 5 CENTAUR R/B 2.5 01:30:58 13° W 01:33:00 26° NW 01:35:44 10° NNE
Nadezhda 3 Rocket 4.0 01:29:57 21° S 01:34:21 84° W 01:40:39 10° N
Cosmos 1339 Rocket 4.5 01:32:02 19° S 01:36:35 81° E 01:42:42 10° N
Meteor 1-21 Rocket 4.4 01:32:42 18° S 01:37:06 75° E 01:43:02 10° NNE
SeaSat 1 4.4 01:35:08 10° ESE 01:39:23 30° NE 01:43:38 10° NNW
PSLV R/B 4.1 01:36:15 10° N 01:40:01 53° WNW 01:42:06 24° SW
Cosmos 407 Rocket 4.4 01:37:55 15° SSE 01:41:47 40° ESE 01:46:32 10° NE
SJ 16-02 2.7 01:39:46 13° SSE 01:42:56 31° ESE 01:46:40 10° NE
Nimbus 7 Rocket 4.4 01:37:14 10° NNE 01:43:10 89° ESE 01:47:36 18° SSW
ACS3 Solar Sail 3.0 01:39:09 10° N 01:43:51 28° WNW 01:48:09 12° WSW
Cosmos 921 Rocket 3.2 01:41:09 21° S 01:43:51 63° ESE 01:48:00 10° NNE
USA 308 2.7 01:41:51 19° WSW 01:44:27 79° NNW 01:48:43 10° ENE
COSMOS 2455 3.0 01:47:52 18° SW 01:52:29 72° NW 01:58:32 10° NNE
IDEFIX/ARIANE 42P 2.6 01:47:56 10° NNE 01:53:12 85° WNW 01:57:12 18° SSW
Cosmos 540 Rocket 3.6 01:49:06 10° NNW 01:54:13 74° ENE 01:59:17 10° SSE
SL-8 R/B 3.7 01:55:29 10° W 02:00:14 89° N 02:05:02 10° E
ADEOS II 4.1 01:56:39 10° NE 02:00:38 22° E 02:04:36 10° SE
Iridium 82 4.3 02:00:15 26° SW 02:01:27 46° W 02:04:11 10° N
SL-19 R/B 3.7 01:59:03 14° SSE 02:01:55 83° WSW 02:05:10 10° NNW
Meteor 1-11 4.3 02:00:23 14° S 02:05:14 79° E 02:10:56 10° NNE
NOSS 3-1 (A) 3.2 02:01:56 16° SW 02:05:44 70° NW 02:11:32 10° NE
Resurs 1-4 Rocket 3.3 02:06:11 10° NNE 02:11:04 38° E 02:15:57 10° SSE
Okean 1 Rocket 4.1 02:07:07 10° N 02:11:18 44° ENE 02:15:26 10° SSE
NOSS 3-1 (C) 4.5 02:10:50 10° W 02:15:20 34° NNW 02:20:46 10° NE
Cosmos 1140 Rocket 3.9 02:11:29 16° SW 02:15:30 53° WNW 02:20:31 10° NNE
Cosmos 1656 4.0 02:11:01 13° S 02:15:48 59° ESE 02:21:15 10° NE
H-2A R/B 3.4 02:11:44 10° NNE 02:16:35 36° E 02:21:17 10° SSE
Cosmos 1346 Rocket 3.0 02:14:57 18° SW 02:17:26 48° WNW 02:20:59 10° N
SL-4 R/B 1.8 02:16:04 10° W 02:19:11 57° NNW 02:22:16 10° ENE
Cosmos 1605 Rocket 4.0 02:13:10 10° N 02:19:31 90° W 02:25:43 10° S
H-2A R/B 4.3 02:17:25 10° SE 02:20:48 30° ENE 02:24:16 10° N
COSMOS 2441 4.4 02:16:03 10° NNE 02:20:57 82° ESE 02:25:39 11° SSW
Cosmos 1763 Rocket 3.5 02:21:00 10° NNW 02:25:57 55° WSW 02:30:51 10° S
Cosmos 371 Rocket 3.3 02:23:01 14° SSW 02:27:10 76° WNW 02:32:01 10° NNE
Cosmos 304 Rocket 3.9 02:25:25 14° SW 02:29:28 64° WNW 02:34:13 10° NNE
Cosmos 1809 Rocket 4.5 02:23:31 10° S 02:29:42 84° W 02:35:56 10° N
Lacrosse 4 Rocket 3.1 02:27:29 10° WNW 02:30:06 16° WSW 02:31:50 13° SW
Cosmos 2297 Rocket 2.5 02:28:26 10° NNW 02:34:07 74° ENE 02:39:46 10° SE
OPS 8737 4.4 02:34:16 10° NW 02:37:17 44° SW 02:40:17 10° SSE
NOSS 2-2 (D) 3.6 02:34:03 10° NW 02:37:39 76° NE 02:42:31 10° SE
Cosmos 2369 Rocket 4.1 02:34:35 10° W 02:38:43 21° NW 02:42:52 10° N
Cosmos 1025 Rocket 3.0 02:34:48 10° S 02:39:08 83° W 02:43:31 10° N
MOZ.5/SAFIR/RUBIN 5/SL-8 3.9 02:36:57 10° S 02:41:28 57° W 02:46:02 10° NNW
FENGYUN 3A 4.2 02:36:26 10° N 02:41:33 46° WNW 02:46:38 10° SW
USA 276 2.3 02:40:19 10° WNW 02:43:15 68° N 02:46:19 10° E
CZ-2D R/B 2.6 02:38:28 10° NNE 02:43:55 65° ESE 02:49:16 10° S
Lacrosse 5 rocket 2.9 02:41:52 10° NW 02:45:01 31° NNE 02:48:05 10° E
ADEOS Rocket 3.8 02:41:07 10° N 02:47:03 40° WNW 02:52:27 10° SW
DMSP B5D2-2 4.3 02:47:22 10° S 02:52:30 53° W 02:57:40 10° NNW
ALOS 2.3 02:48:48 10° NNE 02:53:23 79° ESE 02:57:55 10° S
NOSS 2-2 (C) 4.0 02:50:10 10° NW 02:53:47 41° SW 02:58:38 10° SSE
ATLAS 3B R/B 4.1 02:47:45 10° S 02:54:32 37° ESE 03:01:33 10° NE
Cosmos 468 Rocket 4.0 02:51:53 10° NNW 02:56:55 61° WSW 03:01:56 10° S
ARGOS 4.4 02:53:09 10° NNE 02:58:12 39° E 03:03:13 10° SSE
Spot 2 4.2 02:56:24 10° SSE 03:00:37 75° ENE 03:04:41 10° NNW
Cosmos 2360 4.3 02:55:03 10° SSW 03:00:44 78° WNW 03:06:29 10° NNE
Cosmos 2263 Rocket 4.0 02:56:13 10° NNW 03:01:25 38° NE 03:06:36 10° ESE
Cosmos 1455 Rocket 3.2 03:00:12 10° N 03:04:32 80° E 03:08:51 10° SSE
USA 308 4.0 03:03:01 10° W 03:06:54 40° N 03:10:44 10° ENE
Envisat 3.3 03:07:19 10° N 03:12:15 53° WNW 03:17:09 10° SW
